Year,Month,Day,Hour,Minute,Value (Times are PST for temperature in C)
2018,09,30,00,00,15.30
2018,09,30,00,01,15.30
2018,09,30,00,02,15.30
2018,09,30,00,03,15.40
2018,09,30,00,04,15.40
2018,09,30,00,05,15.40
2018,09,30,00,06,15.40
2018,09,30,00,07,15.40
2018,09,30,00,08,15.40
2018,09,30,00,09,15.40
2018,09,30,00,10,15.30
2018,09,30,00,11,15.30
2018,09,30,00,12,15.30
2018,09,30,00,13,15.30
2018,09,30,00,14,15.30
2018,09,30,00,15,15.30
2018,09,30,00,16,15.30
2018,09,30,00,17,15.30
2018,09,30,00,18,15.30
2018,09,30,00,19,15.30
2018,09,30,00,20,15.30
2018,09,30,00,21,15.30
2018,09,30,00,22,15.30
2018,09,30,00,23,15.30
2018,09,30,00,24,15.30
2018,09,30,00,25,15.30
2018,09,30,00,26,15.30
2018,09,30,00,27,15.30
2018,09,30,00,28,15.30
2018,09,30,00,29,15.30
2018,09,30,00,30,15.30
2018,09,30,00,31,15.30
2018,09,30,00,32,15.20
2018,09,30,00,33,15.20
2018,09,30,00,34,15.20
2018,09,30,00,35,15.20
2018,09,30,00,36,15.20
2018,09,30,00,37,15.20
2018,09,30,00,38,15.20
2018,09,30,00,39,15.20
2018,09,30,00,40,15.20
2018,09,30,00,41,15.20
2018,09,30,00,42,15.20
2018,09,30,00,43,15.20
2018,09,30,00,44,15.20
2018,09,30,00,45,15.20
2018,09,30,00,46,15.20
2018,09,30,00,47,15.20
2018,09,30,00,48,15.20
2018,09,30,00,49,15.20
2018,09,30,00,50,15.20
2018,09,30,00,51,15.20
2018,09,30,00,52,15.20
2018,09,30,00,53,15.30
2018,09,30,00,54,15.30
2018,09,30,00,55,15.30
2018,09,30,00,56,15.30
2018,09,30,00,57,15.30
2018,09,30,00,58,15.30
2018,09,30,00,59,15.30
2018,09,30,01,00,15.30
2018,09,30,01,01,15.30
2018,09,30,01,02,15.40
2018,09,30,01,03,15.40
2018,09,30,01,04,15.40
2018,09,30,01,05,15.40
2018,09,30,01,06,15.40
2018,09,30,01,07,15.40
2018,09,30,01,08,15.40
2018,09,30,01,09,15.40
2018,09,30,01,10,15.40
2018,09,30,01,11,15.40
2018,09,30,01,12,15.40
2018,09,30,01,13,15.40
2018,09,30,01,14,15.40
2018,09,30,01,15,15.40
2018,09,30,01,16,15.40
2018,09,30,01,17,15.40
2018,09,30,01,18,15.40
2018,09,30,01,19,15.40
2018,09,30,01,20,15.40
2018,09,30,01,21,15.40
2018,09,30,01,22,15.40
2018,09,30,01,23,15.40
2018,09,30,01,24,15.40
2018,09,30,01,25,15.40
2018,09,30,01,26,15.40
2018,09,30,01,27,15.40
2018,09,30,01,28,15.40
2018,09,30,01,29,15.30
2018,09,30,01,30,15.30
2018,09,30,01,31,15.30
2018,09,30,01,32,15.30
2018,09,30,01,33,15.30
2018,09,30,01,34,15.30
2018,09,30,01,35,15.30
2018,09,30,01,36,15.30
2018,09,30,01,37,15.30
2018,09,30,01,38,15.30
2018,09,30,01,39,15.30
2018,09,30,01,40,15.30
2018,09,30,01,41,15.30
2018,09,30,01,42,15.30
2018,09,30,01,43,15.20
2018,09,30,01,44,15.30
2018,09,30,01,45,15.30
2018,09,30,01,46,15.30
2018,09,30,01,47,15.30
2018,09,30,01,48,15.30
2018,09,30,01,49,15.40
2018,09,30,01,50,15.40
2018,09,30,01,51,15.30
2018,09,30,01,52,15.30
2018,09,30,01,53,15.30
2018,09,30,01,54,15.30
2018,09,30,01,55,15.30
2018,09,30,01,56,15.30
2018,09,30,01,57,15.30
2018,09,30,01,58,15.20
2018,09,30,01,59,15.20
2018,09,30,02,00,15.20
2018,09,30,02,01,15.10
2018,09,30,02,02,15.10
2018,09,30,02,03,15.00
2018,09,30,02,04,15.00
2018,09,30,02,05,15.00
2018,09,30,02,06,15.00
2018,09,30,02,07,14.90
2018,09,30,02,08,14.90
2018,09,30,02,09,14.80
2018,09,30,02,10,14.80
2018,09,30,02,11,14.70
2018,09,30,02,12,14.70
2018,09,30,02,13,14.70
2018,09,30,02,14,14.60
2018,09,30,02,15,14.60
2018,09,30,02,16,14.50
2018,09,30,02,17,14.50
2018,09,30,02,18,14.50
2018,09,30,02,19,14.50
2018,09,30,02,20,14.60
2018,09,30,02,21,14.60
2018,09,30,02,22,14.60
2018,09,30,02,23,14.60
2018,09,30,02,24,14.50
2018,09,30,02,25,14.50
2018,09,30,02,26,14.40
2018,09,30,02,27,14.40
2018,09,30,02,28,14.40
2018,09,30,02,29,14.40
2018,09,30,02,30,14.40
2018,09,30,02,31,14.40
2018,09,30,02,32,14.40
2018,09,30,02,33,14.50
2018,09,30,02,34,14.60
2018,09,30,02,35,14.60
2018,09,30,02,36,14.70
2018,09,30,02,37,14.80
2018,09,30,02,38,14.80
2018,09,30,02,39,14.80
2018,09,30,02,40,14.80
2018,09,30,02,41,14.80
2018,09,30,02,42,14.80
2018,09,30,02,43,14.80
2018,09,30,02,44,14.80
2018,09,30,02,45,14.80
2018,09,30,02,46,14.80
2018,09,30,02,47,14.80
2018,09,30,02,48,14.80
2018,09,30,02,49,14.80
2018,09,30,02,50,14.80
2018,09,30,02,51,14.80
2018,09,30,02,52,14.90
2018,09,30,02,53,14.90
2018,09,30,02,54,14.90
2018,09,30,02,55,14.90
2018,09,30,02,56,15.00
2018,09,30,02,57,15.00
2018,09,30,02,58,14.90
2018,09,30,02,59,14.90
2018,09,30,03,00,14.80
2018,09,30,03,01,14.70
2018,09,30,03,02,14.60
2018,09,30,03,03,14.40
2018,09,30,03,04,14.30
2018,09,30,03,05,14.20
2018,09,30,03,06,14.00
2018,09,30,03,07,13.90
2018,09,30,03,08,13.70
2018,09,30,03,09,13.60
2018,09,30,03,10,13.50
2018,09,30,03,11,13.40
2018,09,30,03,12,13.30
2018,09,30,03,13,13.20
2018,09,30,03,14,13.20
2018,09,30,03,15,13.20
2018,09,30,03,16,13.10
2018,09,30,03,17,13.00
2018,09,30,03,18,13.00
2018,09,30,03,19,12.90
2018,09,30,03,20,12.90
2018,09,30,03,21,12.90
2018,09,30,03,22,12.80
2018,09,30,03,23,12.80
2018,09,30,03,24,12.80
2018,09,30,03,25,12.70
2018,09,30,03,26,12.70
2018,09,30,03,27,12.60
2018,09,30,03,28,12.60
2018,09,30,03,29,12.50
2018,09,30,03,30,12.50
2018,09,30,03,31,12.40
2018,09,30,03,32,12.40
2018,09,30,03,33,12.30
2018,09,30,03,34,12.30
2018,09,30,03,35,12.20
2018,09,30,03,36,12.20
2018,09,30,03,37,12.20
2018,09,30,03,38,12.10
2018,09,30,03,39,12.10
2018,09,30,03,40,12.10
2018,09,30,03,41,12.10
2018,09,30,03,42,12.10
2018,09,30,03,43,12.10
2018,09,30,03,44,12.10
2018,09,30,03,45,12.00
2018,09,30,03,46,12.00
2018,09,30,03,47,12.00
2018,09,30,03,48,12.00
2018,09,30,03,49,12.00
2018,09,30,03,50,12.00
2018,09,30,03,51,12.00
2018,09,30,03,52,12.00
2018,09,30,03,53,12.00
2018,09,30,03,54,11.90
2018,09,30,03,55,11.90
2018,09,30,03,56,11.90
2018,09,30,03,57,11.90
2018,09,30,03,58,11.90
2018,09,30,03,59,11.90
2018,09,30,04,00,11.90
2018,09,30,04,01,11.90
2018,09,30,04,02,11.90
2018,09,30,04,03,11.90
2018,09,30,04,04,11.90
2018,09,30,04,05,11.90
2018,09,30,04,06,11.90
2018,09,30,04,07,11.90
2018,09,30,04,08,11.90
2018,09,30,04,09,11.90
2018,09,30,04,10,11.90
2018,09,30,04,11,11.90
2018,09,30,04,12,11.90
2018,09,30,04,13,11.90
2018,09,30,04,14,11.90
2018,09,30,04,15,11.90
2018,09,30,04,16,11.90
2018,09,30,04,17,11.90
2018,09,30,04,18,11.90
2018,09,30,04,19,11.90
2018,09,30,04,20,11.90
2018,09,30,04,21,12.00
2018,09,30,04,22,12.00
2018,09,30,04,23,12.00
2018,09,30,04,24,11.90
2018,09,30,04,25,11.90
2018,09,30,04,26,11.90
2018,09,30,04,27,11.90
2018,09,30,04,28,11.90
2018,09,30,04,29,11.90
2018,09,30,04,30,11.90
2018,09,30,04,31,11.90
2018,09,30,04,32,11.90
2018,09,30,04,33,11.90
2018,09,30,04,34,11.90
2018,09,30,04,35,11.90
2018,09,30,04,36,11.90
2018,09,30,04,37,12.00
2018,09,30,04,38,12.00
2018,09,30,04,39,12.00
2018,09,30,04,40,12.00
2018,09,30,04,41,12.10
2018,09,30,04,42,12.10
2018,09,30,04,43,12.10
2018,09,30,04,44,12.10
2018,09,30,04,45,12.10
2018,09,30,04,46,12.10
2018,09,30,04,47,12.20
2018,09,30,04,48,12.20
2018,09,30,04,49,12.20
2018,09,30,04,50,12.20
2018,09,30,04,51,12.20
2018,09,30,04,52,12.20
2018,09,30,04,53,12.20
2018,09,30,04,54,12.20
2018,09,30,04,55,12.20
2018,09,30,04,56,12.30
2018,09,30,04,57,12.30
2018,09,30,04,58,12.30
2018,09,30,04,59,12.30
2018,09,30,05,00,12.30
2018,09,30,05,01,12.30
2018,09,30,05,02,12.30
2018,09,30,05,03,12.30
2018,09,30,05,04,12.40
2018,09,30,05,05,12.40
2018,09,30,05,06,12.40
2018,09,30,05,07,12.40
2018,09,30,05,08,12.40
2018,09,30,05,09,12.40
2018,09,30,05,10,12.40
2018,09,30,05,11,12.40
2018,09,30,05,12,12.40
2018,09,30,05,13,12.40
2018,09,30,05,14,12.50
2018,09,30,05,15,12.40
2018,09,30,05,16,12.50
2018,09,30,05,17,12.40
2018,09,30,05,18,12.40
2018,09,30,05,19,12.50
2018,09,30,05,20,12.40
2018,09,30,05,21,12.50
2018,09,30,05,22,12.50
2018,09,30,05,23,12.50
2018,09,30,05,24,12.50
2018,09,30,05,25,12.50
2018,09,30,05,26,12.50
2018,09,30,05,27,12.50
2018,09,30,05,28,12.50
2018,09,30,05,29,12.50
2018,09,30,05,30,12.50
2018,09,30,05,31,12.50
2018,09,30,05,32,12.50
2018,09,30,05,33,12.40
2018,09,30,05,34,12.40
2018,09,30,05,35,12.40
2018,09,30,05,36,12.40
2018,09,30,05,37,12.40
2018,09,30,05,38,12.40
2018,09,30,05,39,12.40
2018,09,30,05,40,12.50
2018,09,30,05,41,12.50
2018,09,30,05,42,12.50
2018,09,30,05,43,12.50
2018,09,30,05,44,12.50
2018,09,30,05,45,12.50
2018,09,30,05,46,12.50
2018,09,30,05,47,12.60
2018,09,30,05,48,12.60
2018,09,30,05,49,12.60
2018,09,30,05,50,12.60
2018,09,30,05,51,12.60
2018,09,30,05,52,12.60
2018,09,30,05,53,12.60
2018,09,30,05,54,12.60
2018,09,30,05,55,12.60
2018,09,30,05,56,12.60
2018,09,30,05,57,12.60
2018,09,30,05,58,12.60
2018,09,30,05,59,12.60
2018,09,30,06,00,12.60
2018,09,30,06,01,12.60
2018,09,30,06,02,12.60
2018,09,30,06,03,12.60
2018,09,30,06,04,12.60
2018,09,30,06,05,12.60
2018,09,30,06,06,12.60
2018,09,30,06,07,12.60
2018,09,30,06,08,12.60
2018,09,30,06,09,12.60
2018,09,30,06,10,12.60
2018,09,30,06,11,12.70
2018,09,30,06,12,12.70
2018,09,30,06,13,12.70
2018,09,30,06,14,12.70
2018,09,30,06,15,12.70
2018,09,30,06,16,12.70
2018,09,30,06,17,12.70
2018,09,30,06,18,12.70
2018,09,30,06,19,12.70
2018,09,30,06,20,12.70
2018,09,30,06,21,12.70
2018,09,30,06,22,12.70
2018,09,30,06,23,12.80
2018,09,30,06,24,12.80
2018,09,30,06,25,12.80
2018,09,30,06,26,12.80
2018,09,30,06,27,12.80
2018,09,30,06,28,12.80
2018,09,30,06,29,12.80
2018,09,30,06,30,12.80
2018,09,30,06,31,12.80
2018,09,30,06,32,12.80
2018,09,30,06,33,12.80
2018,09,30,06,34,12.80
2018,09,30,06,35,12.80
2018,09,30,06,36,12.80
2018,09,30,06,37,12.80
2018,09,30,06,38,12.80
2018,09,30,06,39,12.80
2018,09,30,06,40,12.80
2018,09,30,06,41,12.80
2018,09,30,06,42,12.80
2018,09,30,06,43,12.80
2018,09,30,06,44,12.80
2018,09,30,06,45,12.80
2018,09,30,06,46,12.80
2018,09,30,06,47,12.80
2018,09,30,06,48,12.70
2018,09,30,06,49,12.70
2018,09,30,06,50,12.70
2018,09,30,06,51,12.70
2018,09,30,06,52,12.70
2018,09,30,06,53,12.80
2018,09,30,06,54,12.80
2018,09,30,06,55,12.80
2018,09,30,06,56,12.80
2018,09,30,06,57,12.80
2018,09,30,06,58,12.80
2018,09,30,06,59,12.80
2018,09,30,07,00,12.80
2018,09,30,07,01,12.80
2018,09,30,07,02,12.80
2018,09,30,07,03,12.80
2018,09,30,07,04,12.80
2018,09,30,07,05,12.80
2018,09,30,07,06,12.80
2018,09,30,07,07,12.80
2018,09,30,07,08,12.80
2018,09,30,07,09,12.80
2018,09,30,07,10,12.80
2018,09,30,07,11,12.80
2018,09,30,07,12,12.80
2018,09,30,07,13,12.80
2018,09,30,07,14,12.80
2018,09,30,07,15,12.80
2018,09,30,07,16,12.80
2018,09,30,07,17,12.80
2018,09,30,07,18,12.80
2018,09,30,07,19,12.80
2018,09,30,07,20,12.80
2018,09,30,07,21,12.80
2018,09,30,07,22,12.80
2018,09,30,07,23,12.80
2018,09,30,07,24,12.80
2018,09,30,07,25,12.80
2018,09,30,07,26,12.80
2018,09,30,07,27,12.80
2018,09,30,07,28,12.80
2018,09,30,07,29,12.80
2018,09,30,07,30,12.80
2018,09,30,07,31,12.80
2018,09,30,07,32,12.80
2018,09,30,07,33,12.90
2018,09,30,07,34,12.90
2018,09,30,07,35,12.90
2018,09,30,07,36,12.90
2018,09,30,07,37,12.90
2018,09,30,07,38,12.90
2018,09,30,07,39,12.90
2018,09,30,07,40,12.90
2018,09,30,07,41,12.90
2018,09,30,07,42,12.90
2018,09,30,07,43,12.90
2018,09,30,07,44,12.90
2018,09,30,07,45,12.90
2018,09,30,07,46,12.90
2018,09,30,07,47,12.90
2018,09,30,07,48,12.90
2018,09,30,07,49,12.90
2018,09,30,07,50,12.90
2018,09,30,07,51,12.90
2018,09,30,07,52,12.90
2018,09,30,07,53,12.90
2018,09,30,07,54,12.90
2018,09,30,07,55,12.90
2018,09,30,07,56,12.90
2018,09,30,07,57,12.90
2018,09,30,07,58,12.90
2018,09,30,07,59,12.90
2018,09,30,08,00,12.90
2018,09,30,08,01,12.90
2018,09,30,08,02,13.00
2018,09,30,08,03,12.90
2018,09,30,08,04,12.90
2018,09,30,08,05,13.00
2018,09,30,08,06,13.00
2018,09,30,08,07,13.00
2018,09,30,08,08,13.00
2018,09,30,08,09,13.00
2018,09,30,08,10,13.00
2018,09,30,08,11,13.00
2018,09,30,08,12,13.00
2018,09,30,08,13,13.00
2018,09,30,08,14,13.10
2018,09,30,08,15,13.00
2018,09,30,08,16,13.00
2018,09,30,08,17,13.00
2018,09,30,08,18,13.00
2018,09,30,08,19,13.00
2018,09,30,08,20,13.00
2018,09,30,08,21,13.00
2018,09,30,08,22,13.00
2018,09,30,08,23,13.00
2018,09,30,08,24,13.00
2018,09,30,08,25,13.10
2018,09,30,08,26,13.10
2018,09,30,08,27,13.10
2018,09,30,08,28,13.10
2018,09,30,08,29,13.10
2018,09,30,08,30,13.10
2018,09,30,08,31,13.10
2018,09,30,08,32,13.10
2018,09,30,08,33,13.10
2018,09,30,08,34,13.10
2018,09,30,08,35,13.10
2018,09,30,08,36,13.10
2018,09,30,08,37,13.10
2018,09,30,08,38,13.10
2018,09,30,08,39,13.10
2018,09,30,08,40,13.10
2018,09,30,08,41,13.10
2018,09,30,08,42,13.10
2018,09,30,08,43,13.10
2018,09,30,08,44,13.10
2018,09,30,08,45,13.10
2018,09,30,08,46,13.10
2018,09,30,08,47,13.10
2018,09,30,08,48,13.10
2018,09,30,08,49,13.10
2018,09,30,08,50,13.10
2018,09,30,08,51,13.10
2018,09,30,08,52,13.10
2018,09,30,08,53,13.10
2018,09,30,08,54,13.10
2018,09,30,08,55,13.10
2018,09,30,08,56,13.10
2018,09,30,08,57,13.10
2018,09,30,08,58,13.10
2018,09,30,08,59,13.10
2018,09,30,09,00,13.10
2018,09,30,09,01,13.10
2018,09,30,09,02,13.20
2018,09,30,09,03,13.20
2018,09,30,09,04,13.20
2018,09,30,09,05,13.20
2018,09,30,09,06,13.20
2018,09,30,09,07,13.20
2018,09,30,09,08,13.20
2018,09,30,09,09,13.20
2018,09,30,09,10,13.20
2018,09,30,16,28,14.20
2018,09,30,16,29,14.20
2018,09,30,16,30,14.20
2018,09,30,16,31,14.20
2018,09,30,16,32,14.20
2018,09,30,16,33,14.10
2018,09,30,16,34,14.10
2018,09,30,16,35,14.10
2018,09,30,16,36,14.10
2018,09,30,16,37,14.10
2018,09,30,16,38,14.10
2018,09,30,16,39,14.10
2018,09,30,16,40,14.10
2018,09,30,16,41,14.10
2018,09,30,16,42,14.10
2018,09,30,16,43,14.10
2018,09,30,16,44,14.10
2018,09,30,16,45,14.10
2018,09,30,16,46,14.10
2018,09,30,16,47,14.10
2018,09,30,16,48,14.10
2018,09,30,16,49,14.10
2018,09,30,16,50,14.10
2018,09,30,16,51,14.10
2018,09,30,16,52,14.00
2018,09,30,16,53,14.10
2018,09,30,16,54,14.10
2018,09,30,16,55,14.10
2018,09,30,16,56,14.10
2018,09,30,16,57,14.00
2018,09,30,16,58,14.00
2018,09,30,16,59,14.00
2018,09,30,17,00,14.00
2018,09,30,17,01,14.10
2018,09,30,17,02,14.10
2018,09,30,17,03,14.10
2018,09,30,17,04,14.10
2018,09,30,17,05,14.10
2018,09,30,17,06,14.10
2018,09,30,17,07,14.10
2018,09,30,17,08,14.10
2018,09,30,17,09,14.00
2018,09,30,17,10,14.00
2018,09,30,17,11,14.00
2018,09,30,17,12,14.10
2018,09,30,17,13,14.10
2018,09,30,17,14,14.10
2018,09,30,17,15,14.10
2018,09,30,17,16,14.10
2018,09,30,17,17,14.10
2018,09,30,17,18,14.10
2018,09,30,17,19,14.20
2018,09,30,17,20,14.20
2018,09,30,17,21,14.20
2018,09,30,17,22,14.20
2018,09,30,17,23,14.20
2018,09,30,17,24,14.20
2018,09,30,17,25,14.20
2018,09,30,17,26,14.30
2018,09,30,17,27,14.30
2018,09,30,17,28,14.30
2018,09,30,17,29,14.30
2018,09,30,17,30,14.30
2018,09,30,17,31,14.30
2018,09,30,17,32,14.30
2018,09,30,17,33,14.30
2018,09,30,17,34,14.30
2018,09,30,17,35,14.30
2018,09,30,17,36,14.30
2018,09,30,17,37,14.30
2018,09,30,17,38,14.40
2018,09,30,17,39,14.40
2018,09,30,17,40,14.40
2018,09,30,17,41,14.40
2018,09,30,17,42,14.40
2018,09,30,17,43,14.40
2018,09,30,17,44,14.40
2018,09,30,17,45,14.40
2018,09,30,17,46,14.40
2018,09,30,17,47,14.40
2018,09,30,17,48,14.30
2018,09,30,17,49,14.30
2018,09,30,17,50,14.30
2018,09,30,17,51,14.30
2018,09,30,17,52,14.30
2018,09,30,17,53,14.30
2018,09,30,17,54,14.30
2018,09,30,17,55,14.30
2018,09,30,17,56,14.30
2018,09,30,17,57,14.30
2018,09,30,17,58,14.30
2018,09,30,17,59,14.30
2018,09,30,18,00,14.30
2018,09,30,18,01,14.30
2018,09,30,18,02,14.30
2018,09,30,18,03,14.30
2018,09,30,18,04,14.30
2018,09,30,18,05,14.30
2018,09,30,18,06,14.30
2018,09,30,18,07,14.30
2018,09,30,18,08,14.40
2018,09,30,18,09,14.40
2018,09,30,18,10,14.40
2018,09,30,18,11,14.40
2018,09,30,18,12,14.40
2018,09,30,18,13,14.40
2018,09,30,18,14,14.40
2018,09,30,18,15,14.50
2018,09,30,18,16,14.50
2018,09,30,18,17,14.50
2018,09,30,18,18,14.50
2018,09,30,18,19,14.50
2018,09,30,18,20,14.60
2018,09,30,18,21,14.50
2018,09,30,18,22,14.60
2018,09,30,18,23,14.60
2018,09,30,18,24,14.60
2018,09,30,18,25,14.60
2018,09,30,18,26,14.60
2018,09,30,18,27,14.60
2018,09,30,18,28,14.60
2018,09,30,18,29,14.60
2018,09,30,18,30,14.60
2018,09,30,18,31,14.60
2018,09,30,18,32,14.60
2018,09,30,18,33,14.60
2018,09,30,18,34,14.60
2018,09,30,18,35,14.60
2018,09,30,18,36,14.60
2018,09,30,18,37,14.60
2018,09,30,18,38,14.60
2018,09,30,18,39,14.60
2018,09,30,18,40,14.60
2018,09,30,18,41,14.60
2018,09,30,18,42,14.60
2018,09,30,18,43,14.60
2018,09,30,18,44,14.60
2018,09,30,18,45,14.60
2018,09,30,18,46,14.60
2018,09,30,18,47,14.60
2018,09,30,18,48,14.60
2018,09,30,18,49,14.60
2018,09,30,18,50,14.60
2018,09,30,18,51,14.60
2018,09,30,18,52,14.60
2018,09,30,18,53,14.60
2018,09,30,18,54,14.60
2018,09,30,18,55,14.60
2018,09,30,18,56,14.60
2018,09,30,18,57,14.60
2018,09,30,18,58,14.60
2018,09,30,18,59,14.60
2018,09,30,19,00,14.60
2018,09,30,19,01,14.60
2018,09,30,19,02,14.60
2018,09,30,19,03,14.60
2018,09,30,19,04,14.60
2018,09,30,19,05,14.60
2018,09,30,19,06,14.60
2018,09,30,19,07,14.60
2018,09,30,19,08,14.60
2018,09,30,19,09,14.60
2018,09,30,19,10,14.60
2018,09,30,19,11,14.60
2018,09,30,19,12,14.60
2018,09,30,19,13,14.60
2018,09,30,19,14,14.60
2018,09,30,19,15,14.60
2018,09,30,19,16,14.60
2018,09,30,19,17,14.60
2018,09,30,19,18,14.60
2018,09,30,19,19,14.60
2018,09,30,19,20,14.60
2018,09,30,19,21,14.60
2018,09,30,19,22,14.60
2018,09,30,19,23,14.50
2018,09,30,19,24,14.50
2018,09,30,19,25,14.50
2018,09,30,19,26,14.50
2018,09,30,19,27,14.40
2018,09,30,19,28,14.40
2018,09,30,19,29,14.40
2018,09,30,19,30,14.40
2018,09,30,19,31,14.40
2018,09,30,19,32,14.40
2018,09,30,19,33,14.40
2018,09,30,19,34,14.40
2018,09,30,19,35,14.40
2018,09,30,19,36,14.40
2018,09,30,19,37,14.40
2018,09,30,19,38,14.40
2018,09,30,19,39,14.40
2018,09,30,19,40,14.40
2018,09,30,19,41,14.40
2018,09,30,19,42,14.30
2018,09,30,19,43,14.30
2018,09,30,19,44,14.30
2018,09,30,19,45,14.30
2018,09,30,19,46,14.30
2018,09,30,19,47,14.30
2018,09,30,19,48,14.30
2018,09,30,19,49,14.40
2018,09,30,19,50,14.40
2018,09,30,19,51,14.50
2018,09,30,19,52,14.50
2018,09,30,19,53,14.60
2018,09,30,19,54,14.60
2018,09,30,19,55,14.60
2018,09,30,19,56,14.60
2018,09,30,19,57,14.70
2018,09,30,19,58,14.70
2018,09,30,19,59,14.70
2018,09,30,20,00,14.70
2018,09,30,20,01,14.70
2018,09,30,20,02,14.70
2018,09,30,20,03,14.70
2018,09,30,20,04,14.70
2018,09,30,20,05,14.70
2018,09,30,20,06,14.70
2018,09,30,20,07,14.70
2018,09,30,20,08,14.70
2018,09,30,20,09,14.70
2018,09,30,20,10,14.70
2018,09,30,20,11,14.70
2018,09,30,20,12,14.70
2018,09,30,20,13,14.70
2018,09,30,20,14,14.70
2018,09,30,20,15,14.70
2018,09,30,20,16,14.70
2018,09,30,20,17,14.70
2018,09,30,20,18,14.70
2018,09,30,20,19,14.70
2018,09,30,20,20,14.70
2018,09,30,20,21,14.70
2018,09,30,20,22,14.70
2018,09,30,20,23,14.70
2018,09,30,20,24,14.70
2018,09,30,20,25,14.70
2018,09,30,20,26,14.70
2018,09,30,20,27,14.70
2018,09,30,20,28,14.70
2018,09,30,20,29,14.70
2018,09,30,20,30,14.70
2018,09,30,20,31,14.70
2018,09,30,20,32,14.70
2018,09,30,20,33,14.70
2018,09,30,20,34,14.70
2018,09,30,20,35,14.70
2018,09,30,20,36,14.70
2018,09,30,20,37,14.70
2018,09,30,20,38,14.70
2018,09,30,20,39,14.70
2018,09,30,20,40,14.70
2018,09,30,20,41,14.80
2018,09,30,20,42,14.80
2018,09,30,20,43,14.80
2018,09,30,20,44,14.80
2018,09,30,20,45,14.80
2018,09,30,20,46,14.80
2018,09,30,20,47,14.80
2018,09,30,20,48,14.80
2018,09,30,20,49,14.90
2018,09,30,20,50,14.90
2018,09,30,20,51,14.90
2018,09,30,20,52,14.90
2018,09,30,20,53,14.90
2018,09,30,20,54,14.90
2018,09,30,20,55,14.90
2018,09,30,20,56,14.90
2018,09,30,20,57,14.80
2018,09,30,20,58,14.80
2018,09,30,20,59,14.80
2018,09,30,21,00,14.80
2018,09,30,21,01,14.80
2018,09,30,21,02,14.80
2018,09,30,21,03,14.80
2018,09,30,21,04,14.80
2018,09,30,21,05,14.80
2018,09,30,21,06,14.80
2018,09,30,21,07,14.80
2018,09,30,21,08,14.70
2018,09,30,21,09,14.70
2018,09,30,21,10,14.70
2018,09,30,21,11,14.70
2018,09,30,21,12,14.70
2018,09,30,21,13,14.60
2018,09,30,21,14,14.60
2018,09,30,21,15,14.60
2018,09,30,21,16,14.60
2018,09,30,21,17,14.60
2018,09,30,21,18,14.50
2018,09,30,21,19,14.50
2018,09,30,21,20,14.50
2018,09,30,21,21,14.50
2018,09,30,21,22,14.50
2018,09,30,21,23,14.50
2018,09,30,21,24,14.50
2018,09,30,21,25,14.50
2018,09,30,21,26,14.40
2018,09,30,21,27,14.40
2018,09,30,21,28,14.50
2018,09,30,21,29,14.50
2018,09,30,21,30,14.50
2018,09,30,21,31,14.50
2018,09,30,21,32,14.40
2018,09,30,21,33,14.40
2018,09,30,21,34,14.40
2018,09,30,21,35,14.40
2018,09,30,21,36,14.40
2018,09,30,21,37,14.40
2018,09,30,21,38,14.40
2018,09,30,21,39,14.40
2018,09,30,21,40,14.40
2018,09,30,21,41,14.40
2018,09,30,21,42,14.40
2018,09,30,21,43,14.40
2018,09,30,21,44,14.40
2018,09,30,21,45,14.40
2018,09,30,21,46,14.40
2018,09,30,21,47,14.40
2018,09,30,21,48,14.40
2018,09,30,21,49,14.40
2018,09,30,21,50,14.30
2018,09,30,21,51,14.30
2018,09,30,21,52,14.30
2018,09,30,21,53,14.30
2018,09,30,21,54,14.30
2018,09,30,21,55,14.30
2018,09,30,21,56,14.30
2018,09,30,21,57,14.30
2018,09,30,21,58,14.30
2018,09,30,21,59,14.30
2018,09,30,22,00,14.30
2018,09,30,22,01,14.30
2018,09,30,22,02,14.30
2018,09,30,22,03,14.20
2018,09,30,22,04,14.20
2018,09,30,22,05,14.20
2018,09,30,22,06,14.20
2018,09,30,22,07,14.20
2018,09,30,22,08,14.20
2018,09,30,22,09,14.20
2018,09,30,22,10,14.20
2018,09,30,22,11,14.20
2018,09,30,22,12,14.20
2018,09,30,22,13,14.20
2018,09,30,22,14,14.20
2018,09,30,22,15,14.20
2018,09,30,22,16,14.20
2018,09,30,22,17,14.20
2018,09,30,22,18,14.20
2018,09,30,22,19,14.20
2018,09,30,22,20,14.20
2018,09,30,22,21,14.20
2018,09,30,22,22,14.20
2018,09,30,22,23,14.20
2018,09,30,22,24,14.20
2018,09,30,22,25,14.20
2018,09,30,22,26,14.20
2018,09,30,22,27,14.20
2018,09,30,22,28,14.20
2018,09,30,22,29,14.20
2018,09,30,22,30,14.20
2018,09,30,22,31,14.20
2018,09,30,22,32,14.20
2018,09,30,22,33,14.20
2018,09,30,22,34,14.20
2018,09,30,22,35,14.20
2018,09,30,22,36,14.20
2018,09,30,22,37,14.20
2018,09,30,22,38,14.20
2018,09,30,22,39,14.20
2018,09,30,22,40,14.20
2018,09,30,22,41,14.20
2018,09,30,22,42,14.20
2018,09,30,22,43,14.20
2018,09,30,22,44,14.20
2018,09,30,22,45,14.20
2018,09,30,22,46,14.20
2018,09,30,22,47,14.20
2018,09,30,22,48,14.20
2018,09,30,22,49,14.20
2018,09,30,22,50,14.20
2018,09,30,22,51,14.20
2018,09,30,22,52,14.30
2018,09,30,22,53,14.30
2018,09,30,22,54,14.30
2018,09,30,22,55,14.30
2018,09,30,22,56,14.30
2018,09,30,22,57,14.30
2018,09,30,22,58,14.30
2018,09,30,22,59,14.30
2018,09,30,23,00,14.30
2018,09,30,23,01,14.30
2018,09,30,23,02,14.30
2018,09,30,23,03,14.30
2018,09,30,23,04,14.30
2018,09,30,23,05,14.30
2018,09,30,23,06,14.30
2018,09,30,23,07,14.30
2018,09,30,23,08,14.30
2018,09,30,23,09,14.30
2018,09,30,23,10,14.30
2018,09,30,23,11,14.30
2018,09,30,23,12,14.30
2018,09,30,23,13,14.40
2018,09,30,23,14,14.40
2018,09,30,23,15,14.40
2018,09,30,23,16,14.40
2018,09,30,23,17,14.40
2018,09,30,23,18,14.40
2018,09,30,23,19,14.40
2018,09,30,23,20,14.40
2018,09,30,23,21,14.40
2018,09,30,23,22,14.40
2018,09,30,23,23,14.40
2018,09,30,23,24,14.40
2018,09,30,23,25,14.40
2018,09,30,23,26,14.40
2018,09,30,23,27,14.40
2018,09,30,23,28,14.40
2018,09,30,23,29,14.40
2018,09,30,23,30,14.40
2018,09,30,23,31,14.40
2018,09,30,23,32,14.40
2018,09,30,23,33,14.40
2018,09,30,23,34,14.40
2018,09,30,23,35,14.40
2018,09,30,23,36,14.40
2018,09,30,23,37,14.40
2018,09,30,23,38,14.40
2018,09,30,23,39,14.40
2018,09,30,23,40,14.40
2018,09,30,23,41,14.40
2018,09,30,23,42,14.40
2018,09,30,23,43,14.40
2018,09,30,23,44,14.40
2018,09,30,23,45,14.40
2018,09,30,23,46,14.40
2018,09,30,23,47,14.40
2018,09,30,23,48,14.40
2018,09,30,23,49,14.40
2018,09,30,23,50,14.40
2018,09,30,23,51,14.30
2018,09,30,23,52,14.30
2018,09,30,23,53,14.30
2018,09,30,23,54,14.30
2018,09,30,23,55,14.30
2018,09,30,23,56,14.30
2018,09,30,23,57,14.20
2018,09,30,23,58,14.20
2018,09,30,23,59,14.20
